Starlink 30875

operational
NORAD ID: 58224 Int'l Des: 2023-170 Owner: SPXS Country: US Constellation: starlink
LEOCIRCULAR

Über Starlink 30875

Beschreibung wird geladen...

Live-Position

3D-Globus wird geladen...

Nächste Überflüge

Höhenverlauf

Altitude vs Time

uPlot chart will show altitude changes over time

Zweizeiliger Elementsatz

1 58224U 23170U 25349.87811833 .00001029 00000-0 91230-4 0 9997
2 58224 43.0042 291.1776 0001267 277.9736 82.0962 15.02533582117679
Epoch: 15. Dez. 2025 • Age: 23 hours

Aktueller Status

Höhe 563.8 km
Geschwindigkeit 7.58 km/s
Subsatellitenpunkt -21.53°S, 99.78°E
Startdatum 4. Nov. 2023
Alter 2.1 years
Typ internet

Technische Details

Klassifizierung Payload
Masse 730.00 kg
Trockenmasse 700.00 kg
Gesamtmasse 730.00 kg
Länge 0.30 m
Durchmesser 4.10 m
Spannweite 29.00 m
Form Box + pan
Hersteller SPXS
Bus-Typ Starlink V2M
Phasenstatus In Orbit
Besitzer/Staat SPXS/US

Große Konstellationen

Loading constellations...